Location: McMath-Hulbert Observatory
(42.6964°N, 83.3187°W)
Time: 11:07:28
(UTC-04:00)

Daily predictions for brighter satellites

Satellite Brightness Start Highest point End
(mag) Time Altitude Azimuth Time Altitude Azimuth Time Altitude Azimuth
CZ-2C R/B 0.4 21:34:32 10° S 21:36:48 80° WSW 21:39:05 10° NNW
SPOT 5 3.5 21:33:20 10° SE 21:37:15 34° ENE 21:41:09 10° N
Aureole 2 Rocket 4.2 21:34:19 10° SW 21:37:52 39° WNW 21:41:08 10° N
H-2A R/B 2.1 21:37:59 10° SSE 21:42:16 77° ENE 21:46:41 10° N
Lacrosse 4 Rocket 2.5 21:39:20 10° SSE 21:42:35 23° ESE 21:45:52 10° NE
Cosmos 1464 Rocket 4.4 21:36:38 10° NNW 21:42:44 67° W 21:48:51 10° S
USA 234 4.2 21:36:40 10° E 21:42:44 41° NNE 21:48:47 10° NW
deb Chang Zheng 4 3.6 21:39:28 10° NNE 21:43:51 71° ESE 21:48:11 10° S
CZ-4 SHROUD 4.1 21:41:08 10° SE 21:44:00 33° ENE 21:46:54 10° N
ERS-1 Rocket 3.1 21:39:36 10° SSE 21:44:38 85° WSW 21:49:41 10° NNW
Cosmos 2228 3.8 21:40:57 10° NNW 21:45:17 56° W 21:49:35 10° S
Cosmos 1515 4.3 21:45:01 10° SSE 21:48:37 39° E 21:52:14 10° NNE
GEOS 3 Rocket 3.8 21:43:30 10° SSE 21:48:45 72° SW 21:53:59 10° NW
Cosmos 1626 Rocket 3.7 21:45:20 10° S 21:49:45 83° W 21:54:11 10° N
PSLV R/B 3.9 21:47:44 10° SE 21:50:38 37° ENE 21:53:33 10° N
Cosmos 1603 4.0 21:47:03 10° SSW 21:52:39 74° WNW 21:58:17 10° NNE
Atlas Centaur 2 3.6 21:50:25 10° SW 21:56:31 32° S 22:03:24 10° ESE
Cosmos 1238 4.1 21:56:40 10° S 21:59:41 62° E 22:02:43 10° NNE
Envisat 3.0 21:54:54 10° SSE 21:59:57 72° ENE 22:05:02 10° N
Cosmos 1634 Rocket 4.3 21:55:30 10° N 22:01:29 50° ENE 22:07:18 11° SSE
Cosmos 407 Rocket 4.1 21:58:01 10° SSE 22:02:48 36° ESE 22:07:33 10° NE
Cosmos 1943 Rocket 3.4 21:59:39 10° N 22:04:24 28° NE 22:08:55 11° ESE
Nimbus 7 Rocket 4.4 21:59:49 10° NNE 22:05:48 78° ESE 22:11:41 10° SSW
Cosmos 1953 Rocket 4.2 22:06:21 11° SSE 22:10:19 38° E 22:14:28 10° NNE
SL-27 R/B 4.4 22:11:35 13° ESE 22:11:47 13° E 22:13:19 10° ENE
Cosmos 1943 3.2 22:07:19 10° SSW 22:12:56 70° ESE 22:18:38 10° NNE
Lacrosse 5 rocket 4.4 22:16:28 10° NW 22:18:26 13° NNW 22:20:26 10° NNE
Cosmos 1939 Rocket 3.6 22:14:30 10° S 22:18:34 55° W 22:22:38 10° NNW
Cosmos 1953 4.2 22:16:12 10° NNE 22:18:46 16° ENE 22:20:31 13° E
Cosmos 1346 Rocket 2.7 22:27:06 13° S 22:30:32 65° E 22:34:27 10° NNE
Cosmos 1842 4.1 22:35:17 23° SE 22:36:50 32° E 22:40:20 10° NNE
SeaSat 1 2.5 22:35:39 19° SSE 22:39:16 79° WSW 22:44:15 10° NNW
ARGOS 3.3 22:36:49 20° SSE 22:40:39 66° ENE 22:46:03 10° N
USA 81 4.2 22:37:30 10° N 22:42:47 75° W 22:47:28 13° S
SL-23 DEB 4.4 22:36:35 10° SW 22:43:09 60° SE 22:47:02 10° ENE
COSMOS 2455 4.0 22:37:45 10° SW 22:43:30 45° NW 22:49:17 10° NNE
Cosmos 1758 Rocket 3.5 22:40:29 16° S 22:43:54 73° E 22:48:15 10° NNE
Meteor 1-21 4.3 22:39:58 14° S 22:44:51 63° E 22:50:37 10° NNE
ISS -1.1 22:47:43 10° W 22:50:35 28° NNW 22:53:28 10° NE
CZ-4B R/B 3.7 22:48:50 10° N 22:53:57 77° WNW 22:59:10 10° SSW
Cosmos 2369 Rocket 2.9 22:49:44 10° NW 22:55:10 49° WSW 22:59:14 17° S
Landsat 7 3.9 22:58:24 29° SE 23:00:44 62° ENE 23:05:27 10° N
Cosmos 1766 3.3 22:57:07 10° N 23:01:09 83° W 23:03:01 31° S
CZ-4 R/B 4.0 23:00:09 10° NNE 23:05:11 85° WNW 23:09:21 15° SSW
Cosmos 1570 Rocket 4.4 23:00:27 10° N 23:05:42 52° ENE 23:08:12 29° SE
Cosmos 1758 3.6 23:02:57 10° N 23:07:01 53° E 23:08:15 38° SE
H-2A R/B 2.2 23:04:51 30° SE 23:07:09 55° ENE 23:12:09 10° N
DELTA 2 DEB (DPAF) 4.1 23:05:25 31° SSE 23:07:32 86° ENE 23:12:04 10° NNW
PSLV R/B 3.4 23:04:14 10° W 23:07:45 58° S 23:08:17 50° SSE
YAOGAN 6 3.8 23:06:29 20° SSW 23:08:37 38° W 23:12:09 10° NNW
NOAA 11 4.2 23:05:44 24° S 23:09:03 78° WSW 23:14:31 10° NNW
ATLAS 3B R/B 3.3 23:02:08 10° SW 23:09:49 68° NW 23:17:18 10° NNE
Cosmos 1140 Rocket 3.6 23:07:18 27° S 23:09:57 55° ESE 23:15:04 10° NNE
Spot 4 4.3 23:11:57 31° ESE 23:13:46 47° ENE 23:18:22 10° N
IGS 5A 3.8 23:12:41 36° ESE 23:13:55 49° ENE 23:17:57 10° N
Cosmos 1842 Rocket 4.2 23:10:00 10° N 23:14:10 42° ENE 23:15:21 34° ESE
SPOT 1/Viking Rocket 4.2 23:12:56 19° SSW 23:16:22 48° W 23:21:21 10° NNW
Terra 1.9 23:14:41 35° SE 23:16:34 62° ENE 23:21:16 10° N
Cosmos 676 Rocket 4.4 23:11:47 10° SSW 23:17:05 66° WNW 23:22:24 10° NNE
Cosmos 1340 4.3 23:17:42 21° E 23:17:42 21° E 23:20:13 10° NE
Lacrosse 4 Rocket 3.2 23:17:30 10° WSW 23:21:09 31° NW 23:24:51 10° N
NOSS 3-2 (A) 4.3 23:20:30 28° ESE 23:21:13 28° ESE 23:26:37 10° NE
Cosmos 2084 3.4 23:19:17 10° NW 23:23:26 77° WSW 23:24:37 47° SSE
Cosmos 1544 3.9 23:20:07 10° N 23:23:36 36° ENE 23:23:55 35° E
SAR-Lupe-2 3.4 23:23:38 59° SSE 23:24:15 84° ENE 23:27:52 10° NNW
USA 234 3.2 23:21:50 29° SE 23:25:25 77° SW 23:32:02 10° NW
Cosmos 1470 3.8 23:24:08 10° NNE 23:27:37 31° ENE 23:27:56 30° E
Cosmos 1805 3.1 23:25:13 10° N 23:29:11 85° ENE 23:29:59 56° SSE
Cosmos 1092 Rocket 4.3 23:27:08 33° SSE 23:29:43 52° E 23:35:47 10° NNE
Lacrosse 5 4.3 23:26:23 10° NNW 23:29:58 19° NNE 23:33:33 10° ENE
BREEZE-M DEB (TANK) 4.0 23:28:05 10° WNW 23:30:08 24° NNW 23:31:57 10° NE
Cosmos 614 Rocket 4.1 23:30:46 40° SSE 23:32:15 54° ESE 23:37:20 10° NNE
COSMOS 2406 3.1 23:33:42 23° SSW 23:37:27 87° ESE 23:43:13 10° NNE
Nadezhda 4 Rocket 4.0 23:34:52 30° S 23:38:11 82° E 23:44:32 10° N
CZ-4C R/B 4.4 23:38:41 29° SW 23:40:07 39° W 23:43:53 10° NNW
DMSP B5D2-2 4.0 23:37:51 10° NNE 23:43:10 87° ESE 23:45:23 36° SSW
Atlas Centaur 2 3.8 23:39:01 10° WSW 23:45:24 28° SSW 23:46:02 28° S
SL-27 R/B 3.9 23:45:17 22° WSW 23:46:44 33° WNW 23:49:50 10° N
Cosmos 2221 3.6 23:43:25 10° NNE 23:47:17 31° ENE 23:47:39 30° E
SL-8 R/B 3.6 23:43:27 10° WNW 23:48:20 90° SSW 23:49:39 49° ESE
Cosmos 1943 Rocket 2.8 23:43:02 10° NW 23:48:20 46° WSW 23:50:26 31° SSW
Cosmos 2082 Rocket 4.3 23:49:20 12° E 23:49:20 12° E 23:50:38 10° ENE
Cosmos-2242 4.1 23:45:54 10° NNW 23:50:01 38° W 23:51:34 28° SW
COSMOS 2487 2.7 23:54:06 63° NE 23:54:06 63° NE 23:57:16 10° NNE
Cosmos 1953 3.4 23:51:42 10° NNW 23:55:23 36° W 23:56:18 32° WSW
